Location: Lafig�re
(44.4503°N, 4.0357°E)
Time: 14:42:45
(UTC+00:00)

Transit 2A Rocket - Pass Details

Date: 21 January 2021
Orbit: 594 x 908 km, 66.7° (Epoch: 06 March)

Event Time Altitude Azimuth Distance (km) Brightness Sun altitude
Rises 11:20:32 0° 172° (S) 3,382 9.7 25.3°
Reaches altitude 10° 11:23:35 10° 157° (SSE) 2,400 9.2 25.4°
Maximum altitude 11:27:38 21° 109° (ESE) 1,681 7.3 25.4°
Drops below altitude 10° 11:31:28 10° 61° (ENE) 2,256 7.3 25.5°
Sets 11:34:13 0° 46° (NE) 3,123 7.8 25.6°
